This is the latest recevied weather packets stored in our database for station/object SQ9RHX-13. If no packets are shown the sender has not sent any weather packets the latest 10 day(s).
| Time | Temp. | Humidity | Pressure | Rain* | Wind** | Luminosity | Snow |
|---|---|---|---|---|---|---|---|
| 1777581602 | 10° C | 64% | 1032.4 hPa | 0 mm | - | 0 W/m² | - |
| 1777581303 | 10° C | 67% | 1032.5 hPa | 0 mm | - | 0 W/m² | - |
| 1777581003 | 10° C | 66% | 1032.5 hPa | 0 mm | - | 0 W/m² | - |
| 1777580702 | 10° C | 67% | 1032.5 hPa | 0 mm | - | 0 W/m² | - |
| 1777580403 | 10° C | 64% | 1032.4 hPa | 0 mm | - | 0 W/m² | - |
| 1777580104 | 10° C | 65% | 1032.6 hPa | 0 mm | - | 0 W/m² | - |
| 1777579803 | 10° C | 64% | 1032.5 hPa | 0 mm | - | 0 W/m² | - |
| 1777579503 | 9.44° C | 65% | 1032.4 hPa | 0 mm | - | 0 W/m² | - |
| 1777579204 | 9.44° C | 64% | 1032.5 hPa | 0 mm | - | 0 W/m² | - |
| 1777578904 | 9.44° C | 65% | 1032.6 hPa | 0 mm | - | 0 W/m² | - |
| 1777578605 | 9.44° C | 66% | 1032.4 hPa | 0 mm | - | 0 W/m² | - |
| 1777578303 | 9.44° C | 65% | 1032.5 hPa | 0 mm | - | 0 W/m² | - |
| 1777578003 | 9.44° C | 65% | 1032.6 hPa | 0 mm | - | 0 W/m² | - |
| 1777577702 | 9.44° C | 64% | 1032.5 hPa | 0 mm | - | 0 W/m² | - |
| 1777577404 | 9.44° C | 66% | 1032.5 hPa | 0 mm | - | 0 W/m² | - |
| 1777577104 | 8.89° C | 65% | 1032.5 hPa | 0 mm | - | 0 W/m² | - |
| 1777576805 | 8.89° C | 65% | 1032.4 hPa | 0 mm | - | 0 W/m² | - |
| 1777576502 | 8.89° C | 66% | 1032.4 hPa | 0 mm | - | 0 W/m² | - |
| 1777576203 | 8.89° C | 67% | 1032.4 hPa | 0 mm | - | 0 W/m² | - |
| 1777575902 | 8.89° C | 65% | 1032.3 hPa | 0 mm | - | 0 W/m² | - |
| 1777575603 | 8.33° C | 62% | 1032.4 hPa | 0 mm | - | 0 W/m² | - |
| 1777575307 | 8.89° C | 63% | 1032.3 hPa | 0 mm | - | 0 W/m² | - |
| 1777575003 | 8.33° C | 62% | 1032.3 hPa | 0 mm | - | 0 W/m² | - |
| 1777574703 | 8.33° C | 60% | 1032.3 hPa | 0 mm | - | 0 W/m² | - |
| 1777574403 | 8.33° C | 61% | 1032.2 hPa | 0 mm | - | 0 W/m² | - |
* Rain latest hour (hover to see other rain measurements)
** Current wind speed in m/s (hover to see current wind gust speed)